When you browse on this site, cookies collect data to enhance your experience and personalize the content and advertising you see.
Visit our Privacy Policy to learn more. By continuing to use the site, you agree to this use of cookies and data.
  • In Portugal
  • List of Countries
  • For 7 days
  • Water Temperature
  • Weather Map
  • Weather Widgets
  • user-avatar
    Login

    Hourly Weather Cardiff

    Today, 26 May, Tuesday

    Time Temperature Precipitation Wind Pressure Humidity
    00:00 +11°C° 0 mm 1 mps 774 mmHg 75%
    01:00 +11°C° 0 mm 1 mps 774 mmHg 75%
    02:00 +11°C° 0 mm 1 mps 774 mmHg 74%
    03:00 +11°C° 0 mm 1 mps 774 mmHg 74%
    04:00 +12°C° 0 mm 1 mps 774 mmHg 75%
    05:00 +13°C° 0 mm 1 mps 775 mmHg 75%
    06:00 +14°C° 0 mm 1 mps 775 mmHg 76%
    07:00 +15°C° 0 mm 1 mps 775 mmHg 73%
    08:00 +16°C° 0 mm 1 mps 775 mmHg 70%
    09:00 +17°C° 0 mm 2 mps 775 mmHg 67%
    10:00 +18°C° 0 mm 2 mps 775 mmHg 67%
    11:00 +19°C° 0 mm 2 mps 775 mmHg 67%
    12:00 +20°C° 0 mm 3 mps 775 mmHg 68%
    13:00 +20°C° 0 mm 3 mps 775 mmHg 69%
    14:00 +20°C° 0 mm 2 mps 775 mmHg 71%
    15:00 +20°C° 0 mm 2 mps 775 mmHg 72%
    16:00 +20°C° 0 mm 2 mps 775 mmHg 75%
    17:00 +19°C° 0 mm 2 mps 775 mmHg 78%
    18:00 +19°C° 0 mm 2 mps 775 mmHg 81%
    19:00 +18°C° 0 mm 2 mps 775 mmHg 84%
    20:00 +17°C° 0 mm 2 mps 775 mmHg 88%
    21:00 +16°C° 0 mm 2 mps 775 mmHg 91%
    22:00 +16°C° 0 mm 2 mps 775 mmHg 92%
    23:00 +15°C° 0 mm 2 mps 775 mmHg 92%

    Tomorrow, 27 May, Wednesday

    Time Temperature Precipitation Wind Pressure Humidity
    00:00 +15°C° 0 mm 2 mps 775 mmHg 92%
    01:00 +15°C° 0 mm 2 mps 775 mmHg 91%
    02:00 +14°C° 0 mm 2 mps 775 mmHg 90%
    03:00 +14°C° 0 mm 2 mps 775 mmHg 89%
    04:00 +15°C° 0 mm 2 mps 775 mmHg 87%
    05:00 +15°C° 0 mm 2 mps 775 mmHg 85%
    06:00 +15°C° 0 mm 2 mps 775 mmHg 83%
    07:00 +16°C° 0 mm 2 mps 775 mmHg 79%
    08:00 +17°C° 0 mm 2 mps 775 mmHg 74%
    09:00 +19°C° 0 mm 2 mps 775 mmHg 70%
    10:00 +19°C° 0 mm 2 mps 775 mmHg 68%
    11:00 +20°C° 0 mm 2 mps 775 mmHg 67%
    12:00 +21°C° 0 mm 2 mps 775 mmHg 65%
    13:00 +21°C° 0 mm 2 mps 774 mmHg 65%
    14:00 +21°C° 0 mm 2 mps 774 mmHg 64%
    15:00 +23°C° 0 mm 2 mps 774 mmHg 64%
    16:00 +21°C° 0 mm 2 mps 774 mmHg 66%
    17:00 +21°C° 0 mm 2 mps 774 mmHg 68%
    18:00 +20°C° 0 mm 2 mps 774 mmHg 70%
    19:00 +19°C° 0 mm 2 mps 774 mmHg 73%
    20:00 +17°C° 0 mm 2 mps 774 mmHg 75%
    21:00 +15°C° 0 mm 2 mps 774 mmHg 78%
    22:00 +15°C° 0 mm 2 mps 774 mmHg 80%
    23:00 +14°C° 0 mm 2 mps 774 mmHg 81%

    Day after tomorrow, 28 May, Thursday

    Time Temperature Precipitation Wind Pressure Humidity
    00:00 +13°C° 0 mm 3 mps 774 mmHg 82%
    01:00 +12°C° 0 mm 3 mps 774 mmHg 86%
    02:00 +12°C° 0 mm 3 mps 774 mmHg 90%
    03:00 +11°C° 0 mm 3 mps 774 mmHg 94%
    04:00 +12°C° 0 mm 3 mps 774 mmHg 93%
    05:00 +12°C° 0 mm 3 mps 773 mmHg 91%
    06:00 +13°C° 0 mm 3 mps 773 mmHg 90%
    07:00 +14°C° 0 mm 3 mps 773 mmHg 82%
    08:00 +15°C° 0 mm 4 mps 773 mmHg 75%
    09:00 +17°C° 0 mm 4 mps 773 mmHg 67%
    10:00 +18°C° 0 mm 4 mps 773 mmHg 64%
    11:00 +19°C° 0 mm 5 mps 773 mmHg 61%
    12:00 +20°C° 0 mm 5 mps 772 mmHg 58%
    13:00 +20°C° 0 mm 5 mps 772 mmHg 58%
    14:00 +20°C° 0 mm 5 mps 772 mmHg 59%
    15:00 +21°C° 0 mm 5 mps 771 mmHg 59%
    16:00 +20°C° 0 mm 5 mps 771 mmHg 62%
    17:00 +20°C° 0 mm 4 mps 771 mmHg 65%
    18:00 +19°C° 0 mm 4 mps 770 mmHg 68%
    19:00 +18°C° 0 mm 4 mps 770 mmHg 73%
    20:00 +15°C° 0 mm 4 mps 770 mmHg 77%
    21:00 +13°C° 0 mm 4 mps 770 mmHg 81%
    22:00 +12°C° 0 mm 4 mps 770 mmHg 79%
    23:00 +11°C° 0 mm 4 mps 770 mmHg 76%

    29 May, Friday

    Time Temperature Precipitation Wind Pressure Humidity
    00:00 +10°C° 0 mm 4 mps 770 mmHg 74%
    01:00 +8°C° 0 mm 4 mps 770 mmHg 75%
    02:00 +8°C° 0 mm 4 mps 770 mmHg 76%
    03:00 +8°C° 0 mm 3 mps 769 mmHg 76%
    04:00 +8°C° 0 mm 4 mps 769 mmHg 76%
    05:00 +8°C° 0 mm 4 mps 769 mmHg 76%
    06:00 +10°C° 0 mm 4 mps 769 mmHg 76%
    07:00 +12°C° 0 mm 4 mps 769 mmHg 74%
    08:00 +14°C° 0 mm 4 mps 768 mmHg 71%
    09:00 +15°C° 0 mm 4 mps 768 mmHg 68%
    10:00 +17°C° 0 mm 5 mps 768 mmHg 65%
    11:00 +19°C° 0 mm 5 mps 768 mmHg 61%
    12:00 +20°C° 0 mm 5 mps 767 mmHg 58%
    13:00 +20°C° 0 mm 5 mps 767 mmHg 58%
    14:00 +21°C° 0 mm 5 mps 767 mmHg 58%
    15:00 +21°C° 0 mm 5 mps 767 mmHg 57%
    16:00 +20°C° 0 mm 5 mps 766 mmHg 60%
    17:00 +20°C° 0 mm 4 mps 766 mmHg 64%
    18:00 +19°C° 0 mm 4 mps 766 mmHg 67%
    19:00 +17°C° 0 mm 4 mps 766 mmHg 70%
    20:00 +14°C° 0 mm 3 mps 766 mmHg 74%
    21:00 +13°C° 0 mm 3 mps 766 mmHg 77%
    22:00 +12°C° 0 mm 3 mps 766 mmHg 78%
    23:00 +11°C° 0 mm 3 mps 766 mmHg 79%

    30 May, Saturday

    Time Temperature Precipitation Wind Pressure Humidity
    00:00 +11°C° 0 mm 3 mps 766 mmHg 79%
    01:00 +10°C° 0 mm 3 mps 766 mmHg 81%
    02:00 +10°C° 0 mm 3 mps 766 mmHg 83%
    03:00 +10°C° 0 mm 3 mps 766 mmHg 84%
    04:00 +10°C° 0 mm 3 mps 766 mmHg 82%
    05:00 +11°C° 0 mm 3 mps 766 mmHg 80%
    06:00 +11°C° 0 mm 3 mps 766 mmHg 78%
    07:00 +13°C° 0 mm 3 mps 766 mmHg 74%
    08:00 +16°C° 0 mm 3 mps 766 mmHg 71%
    09:00 +17°C° 0 mm 3 mps 766 mmHg 67%
    10:00 +18°C° 0 mm 3 mps 766 mmHg 64%
    11:00 +20°C° 0 mm 3 mps 766 mmHg 61%
    12:00 +21°C° 0 mm 3 mps 766 mmHg 59%
    13:00 +21°C° 0 mm 3 mps 765 mmHg 59%
    14:00 +22°C° 0 mm 4 mps 765 mmHg 59%
    15:00 +22°C° 0 mm 4 mps 765 mmHg 60%
    16:00 +22°C° 0 mm 3 mps 765 mmHg 64%
    17:00 +22°C° 0 mm 3 mps 765 mmHg 68%
    18:00 +21°C° 0 mm 2 mps 764 mmHg 73%
    19:00 +20°C° 0 mm 2 mps 765 mmHg 77%
    20:00 +18°C° 0 mm 2 mps 765 mmHg 81%
    21:00 +16°C° 0 mm 1 mps 765 mmHg 85%
    22:00 +16°C° 0 mm 1 mps 765 mmHg 86%
    23:00 +15°C° 0 mm 2 mps 765 mmHg 87%

    31 May, Sunday

    Time Temperature Precipitation Wind Pressure Humidity
    00:00 +15°C° 0 mm 2 mps 765 mmHg 87%
    01:00 +14°C° 0 mm 2 mps 765 mmHg 88%
    02:00 +13°C° 0 mm 2 mps 764 mmHg 90%
    03:00 +13°C° 0 mm 2 mps 764 mmHg 91%
    04:00 +13°C° 0 mm 2 mps 764 mmHg 89%
    05:00 +14°C° 0 mm 2 mps 764 mmHg 88%
    06:00 +14°C° 0 mm 2 mps 764 mmHg 87%
    07:00 +14°C° 0 mm 3 mps 764 mmHg 82%
    08:00 +16°C° 0 mm 3 mps 764 mmHg 77%
    09:00 +17°C° 0 mm 3 mps 764 mmHg 73%
    10:00 +18°C° 0 mm 3 mps 764 mmHg 68%
    11:00 +19°C° 0 mm 3 mps 764 mmHg 64%
    12:00 +20°C° 0 mm 3 mps 764 mmHg 60%
    13:00 +21°C° 0 mm 2 mps 764 mmHg 59%
    14:00 +21°C° 0 mm 2 mps 763 mmHg 59%
    15:00 +23°C° 0 mm 2 mps 763 mmHg 59%
    16:00 +22°C° 0 mm 1 mps 763 mmHg 63%
    17:00 +22°C° 0 mm 1 mps 763 mmHg 68%
    18:00 +22°C° 0 mm 1 mps 762 mmHg 72%
    19:00 +20°C° 0 mm 1 mps 763 mmHg 76%
    20:00 +19°C° 0 mm 1 mps 763 mmHg 81%
    21:00 +18°C° 0 mm 1 mps 763 mmHg 85%
    22:00 +16°C° 0.1 mm 1 mps 763 mmHg 85%
    23:00 +16°C° 0.1 mm 1 mps 763 mmHg 86%
    Show more